Weather observations for the past three days for
Newton Municipal Airport - Earl Johnson Field
Imperial (Metric)
Date Time (cdt) Wind (mph) Vis. (mi.) Weather Sky Cond. Temperature (ºF) Relative Humidity Wind Chill (°F) Heat Index (°F) Pressure Precipitation (in)
Air Dwpt 6 hour altimeter (in) sea level (mb) 1 hr 3 hr 6 hr
Max. Min.
15 01:15 E 7 10.00 Fair CLR 66.2 51.8 60% 30.03 0.0
15 00:55 E 8 10.00 Fair CLR 64.4 53.6 68% 30.01 0.0
15 00:35 E 8 10.00 Fair CLR 66.2 53.6 64% 30.02 0.0
15 00:15 E 8 10.00 Fair CLR 66.2 53.6 64% 30.03 0.0
14 23:55 E 8 10.00 Fair CLR 68 51.8 56% 30.04 0.0
14 23:35 E 7 10.00 Fair CLR 68 51.8 56% 30.04 0.0
14 23:15 E 8 8.00 Fair CLR 68 51.8 56% 30.04 0.0
14 22:55 E 7 8.00 Fair CLR 71.6 50 47% 30.04 0.0
14 22:35 E 5 8.00 Fair CLR 71.6 50 47% 30.04 0.0
14 22:15 E 6 5.00 Fair with Haze CLR 71.6 51.8 50% 30.03 0.0
14 21:55 Vrbl 6 5.00 Fair with Haze CLR 71.6 51.8 50% 30.03 0.0
14 21:35 E 6 5.00 Fair with Haze CLR 73.4 51.8 47% 30.02 0.0
14 21:15 E 6 9.00 Fair CLR 73.4 50 44% 30.02 0.0
14 20:55 E 6 9.00 Fair CLR 75.2 50 41% 78 30.02 0.0
14 20:35 Calm 10.00 Fair CLR 75.2 50 41% 78 30.03 0.0
14 20:15 E 5 10.00 Fair CLR 77 50 39% 78 30.02 0.0
14 19:55 E 5 10.00 Fair CLR 80.6 48.2 32% 80 30.02 0.0
14 19:35 NE 6 10.00 Fair CLR 80.6 46.4 30% 80 30.03 0.0
14 19:15 NE 6 10.00 Fair CLR 80.6 46.4 30% 80 30.03 0.0
14 18:55 NE 7 10.00 Fair CLR 82.4 46.4 28% 81 30.02 0.0
14 18:35 NE 10 10.00 Fair CLR 82.4 44.6 26% 81 30.02 0.0
14 18:15 N 8 10.00 Fair CLR 82.4 46.4 28% 81 30.03 0.0
14 17:55 NE 9 10.00 Fair CLR 84.2 44.6 25% 82 30.03 0.0
14 17:35 N 7 10.00 Fair CLR 84.2 44.6 25% 82 30.02 0.0
14 17:15 NE 8 G 17 10.00 Fair CLR 84.2 46.4 27% 82 30.03 0.0
14 16:55 NE 10 G 17 10.00 Fair CLR 86 48.2 27% 83 30.03 0.0
14 16:35 N 9 G 20 0.00 Fair CLR 84.2 46.4 27% 82 30.04 0.0
14 16:15 N 9 10.00 Fair CLR 86 44.6 24% 83 30.03 0.0
14 15:55 N 8 G 18 10.00 Fair CLR 86 44.6 24% 83 30.03 0.0
14 15:35 N 14 10.00 Fair CLR 86 44.6 24% 83 30.04 0.0
14 15:15 N 14 G 21 10.00 Fair CLR 86 44.6 24% 83 30.03 0.0
14 14:55 N 9 G 16 10.00 Fair CLR 86 48.2 27% 83 30.04 0.0
14 14:35 N 13 10.00 Fair CLR 86 48.2 27% 83 30.04 0.0
14 14:15 NW 10 G 20 10.00 Fair CLR 84.2 46.4 27% 82 30.05 0.0
14 13:55 N 14 10.00 Fair CLR 84.2 50 31% 82 30.05 0.0
14 13:35 Vrbl 7 G 18 10.00 Fair CLR 84.2 46.4 27% 82 30.05 0.0
14 13:15 N 10 G 16 10.00 Fair CLR 84.2 50 31% 82 30.06 0.0
14 12:55 N 12 10.00 Fair CLR 82.4 48.2 30% 81 30.06 0.0
14 12:35 NW 10 10.00 Fair CLR 82.4 46.4 28% 81 30.06 0.0
14 12:15 N 10 G 17 10.00 Fair CLR 82.4 50 32% 81 30.07 0.0
14 11:55 N 13 10.00 Fair CLR 82.4 50 32% 81 30.07 0.0
14 11:35 N 14 10.00 Fair CLR 82.4 50 32% 81 30.08 0.0
14 11:15 N 10 G 20 10.00 Fair CLR 80.6 51.8 37% 80 30.07 0.0
14 10:55 N 12 10.00 Fair CLR 80.6 51.8 37% 80 30.07 0.0
14 10:35 N 13 G 18 10.00 Fair CLR 78.8 50 37% 79 30.07 0.0
14 10:15 N 15 10.00 Fair CLR 78.8 50 37% 79 30.08 0.0
14 09:55 N 13 10.00 Fair CLR 78.8 51.8 39% 79 30.07 0.0
14 09:35 N 9 10.00 Fair CLR 77 55.4 47% 79 30.06 0.0
14 09:15 N 12 10.00 Fair CLR 75.2 55.4 50% 78 30.07 0.0
14 08:55 N 13 10.00 Fair CLR 75.2 57.2 54% 78 30.07 0.0
14 08:35 N 10 10.00 Fair CLR 73.4 59 61% 30.06 0.0
14 08:15 N 9 10.00 Fair CLR 71.6 60.8 69% 30.05 0.0
14 07:55 N 8 10.00 Fair CLR 71.6 59 65% 30.05 0.0
14 07:35 N 9 10.00 Fair CLR 69.8 60.8 73% 30.05 0.0
14 07:15 N 7 10.00 Fair CLR 68 64.4 88% 30.04 0.0
14 06:55 NW 6 10.00 Fair CLR 66.2 64.4 94% 30.04 0.0
14 06:35 NW 6 10.00 Fair CLR 62.6 62.6 100% 30.04 0.0
14 06:15 W 3 10.00 Fair CLR 60.8 60.8 100% 30.03 0.0
14 05:55 W 5 0.00 NULL NULL 60.8 60.8 100% 30.02 0.0
14 05:35 W 5 10.00 Fair CLR 62.6 62.6 100% 30.01 0.0
14 05:15 N 3 10.00 Fair CLR 64.4 62.6 94% 30 0.0
14 04:55 N 7 10.00 Fair CLR 66.2 62.6 88% 29.99 0.0
14 04:35 N 6 10.00 Fair CLR 66.2 62.6 88% 30 0.0
14 04:15 N 6 10.00 Fair CLR 68 62.6 83% 30 0.0
14 03:55 N 3 10.00 Fair CLR 66.2 62.6 88% 30 0.0
14 03:15 N 6 10.00 Fair CLR 68 62.6 83% 30 0.0
14 02:55 N 7 10.00 Fair CLR 68 62.6 83% 29.99 0.0
14 02:35 N 9 10.00 Fair CLR 68 62.6 83% 29.99 0.0
14 02:15 N 5 10.00 Fair CLR 69.8 62.6 78% 29.99 0.0
14 01:55 N 7 10.00 Fair CLR 69.8 62.6 78% 29.99 0.0
14 01:35 N 7 10.00 A Few Clouds FEW110 69.8 62.6 78% 29.99 0.0
14 01:15 N 5 10.00 Mostly Cloudy BKN110 69.8 66.2 88% 29.99 0.0
14 00:55 Calm 10.00 Overcast OVC110 71.6 64.4 78% 29.99 0.0
14 00:35 Calm 10.00 Overcast OVC100 71.6 60.8 69% 29.99 0.0
14 00:15 NE 6 10.00 Overcast OVC100 73.4 60.8 65% 29.96 0.0
13 23:55 NE 7 10.00 Mostly Cloudy BKN100 73.4 59 61% 29.95 0.0
13 23:35 NE 6 10.00 Fair CLR 73.4 59 61% 29.94 0.0
13 23:15 NE 6 10.00 Fair CLR 75.2 59 57% 78 29.93 0.0
13 22:55 NE 5 10.00 Fair CLR 75.2 60.8 61% 77 29.93 0.0
13 22:35 Calm 10.00 Fair CLR 75.2 60.8 61% 77 29.92 0.0
13 22:15 Calm 10.00 Fair CLR 78.8 59 51% 80 29.91 0.0
13 21:55 NE 3 10.00 Fair CLR 77 60.8 57% 79 29.9 0.0
13 21:35 Calm 10.00 Partly Cloudy SCT090 75.2 62.6 65% 77 29.89 0.0
13 21:15 N 5 10.00 Overcast SCT080 OVC090 78.8 60.8 54% 80 29.88 0.0
13 20:55 NE 3 9.00 Overcast BKN080 OVC100 80.6 59 48% 81 29.88 0.0
13 20:35 NE 3 10.00 Mostly Cloudy BKN080 BKN100 80.6 59 48% 81 29.88 0.0
13 20:15 Calm 10.00 Overcast OVC075 82.4 57.2 42% 82 29.87 0.0
13 19:55 NE 3 10.00 Mostly Cloudy BKN075 BKN085 82.4 57.2 42% 82 29.87 0.0
13 19:35 NE 6 10.00 Mostly Cloudy FEW075 BKN085 82.4 57.2 42% 82 29.87 0.0
13 19:15 NE 8 10.00 Mostly Cloudy BKN070 BKN085 82.4 57.2 42% 82 29.87 0.0
13 18:55 NE 9 10.00 Partly Cloudy SCT070 SCT090 84.2 57.2 40% 83 29.87 0.0
13 18:35 N 12 10.00 Fair CLR 84.2 55.4 37% 83 29.87 0.0
13 18:15 N 12 10.00 A Few Clouds FEW075 84.2 55.4 37% 83 29.87 0.0
13 17:55 N 12 G 17 10.00 Partly Cloudy SCT075 86 55.4 35% 85 29.87 0.0
13 17:35 N 12 G 20 10.00 A Few Clouds FEW075 84.2 53.6 35% 83 29.88 0.0
13 17:15 NE 13 G 21 10.00 Partly Cloudy SCT075 86 53.6 33% 84 29.88 0.0
13 16:55 NE 15 10.00 A Few Clouds FEW075 87.8 53.6 31% 86 29.87 0.0
13 16:35 NE 13 G 24 10.00 Fair CLR 87.8 55.4 33% 86 29.86 0.0
13 16:15 NE 15 G 24 10.00 Fair CLR 87.8 51.8 29% 85 29.86 0.0
13 15:55 NE 12 G 30 9.00 Fair CLR 87.8 51.8 29% 85 29.87 0.0
13 15:35 NE 15 G 24 10.00 Fair CLR 87.8 51.8 29% 85 29.87 0.0
13 15:15 NE 18 G 26 10.00 Fair CLR 87.8 53.6 31% 86 29.87 0.0
13 14:55 E 20 10.00 Fair CLR 87.8 53.6 31% 86 29.87 0.0
13 14:35 NE 17 10.00 Fair CLR 87.8 55.4 33% 86 29.87 0.0
13 14:15 NE 21 G 32 10.00 Fair and Breezy CLR 87.8 57.2 35% 87 29.86 0.0
13 13:55 NE 17 G 24 10.00 Fair CLR 89.6 59 36% 89 29.85 0.0
13 13:35 NE 15 G 25 10.00 Fair CLR 87.8 57.2 35% 87 29.86 0.0
13 13:15 N 21 G 28 10.00 Fair and Breezy CLR 89.6 59 36% 89 29.86 0.0
13 12:55 NE 18 G 25 10.00 Fair CLR 89.6 55.4 31% 88 29.84 0.0
13 12:35 NE 18 10.00 Fair CLR 87.8 53.6 31% 86 29.85 0.0
13 12:15 NE 12 G 17 10.00 Fair CLR 86 68 55% 89 29.85 0.0
13 11:55 NE 10 10.00 Fair CLR 86 69.8 59% 91 29.85 0.0
13 11:35 N 9 10.00 Fair CLR 86 71.6 62% 92 29.85 0.0
13 11:15 N 7 10.00 Fair CLR 82.4 69.8 66% 86 29.85 0.0
13 10:55 N 8 10.00 Fair CLR 82.4 69.8 66% 86 29.84 0.0
13 10:35 N 7 10.00 Fair CLR 82.4 71.6 70% 87 29.83 0.0
13 10:15 N 8 10.00 Fair CLR 80.6 69.8 70% 84 29.82 0.0
13 09:55 NW 8 10.00 Fair CLR 80.6 69.8 70% 84 29.82 0.0
13 09:35 Vrbl 3 10.00 Fair CLR 78.8 69.8 74% 81 29.81 0.0
13 09:15 Vrbl 6 10.00 Fair CLR 78.8 69.8 74% 81 29.8 0.0
13 08:55 W 7 10.00 Fair CLR 78.8 69.8 74% 81 29.8 0.0
13 08:35 W 9 10.00 Fair CLR 78.8 69.8 74% 81 29.81 0.0
13 08:15 W 8 10.00 Fair CLR 77 69.8 79% 79 29.8 0.0
13 07:55 W 10 10.00 Fair CLR 75.2 68 78% 76 29.8 0.0
13 07:35 W 10 10.00 Fair CLR 75.2 68 78% 76 29.79 0.0
13 07:15 SW 10 10.00 Fair CLR 73.4 68 83% 29.78 0.0
13 06:55 SW 8 10.00 Fair CLR 73.4 68 83% 29.78 0.0
13 06:35 SW 10 10.00 Fair CLR 73.4 68 83% 29.77 0.0
13 06:15 SW 9 10.00 Fair CLR 71.6 66.2 83% 29.77 0.0
13 05:55 SW 9 10.00 Fair CLR 71.6 66.2 83% 29.76 0.0
13 05:35 S 10 10.00 Fair CLR 71.6 66.2 83% 29.76 0.0
13 05:15 SW 9 10.00 Fair CLR 71.6 66.2 83% 29.76 0.0
13 04:55 SW 7 10.00 Fair CLR 71.6 66.2 83% 29.77 0.0
13 04:35 SW 8 10.00 Fair CLR 73.4 66.2 78% 29.77 0.0
13 04:15 SW 10 10.00 Fair CLR 73.4 66.2 78% 29.77 0.0
13 03:55 SW 8 10.00 Fair CLR 73.4 66.2 78% 29.77 0.0
13 03:35 S 8 10.00 Fair CLR 73.4 66.2 78% 29.77 0.0
13 03:15 S 7 10.00 Fair CLR 73.4 66.2 78% 29.77 0.0
13 02:55 S 8 10.00 Fair CLR 73.4 66.2 78% 29.76 0.0
13 02:35 S 7 10.00 Fair CLR 73.4 66.2 78% 29.76 0.0
13 02:15 S 8 10.00 Fair CLR 75.2 64.4 69% 77 29.77 0.0
13 01:55 S 8 10.00 Fair CLR 75.2 64.4 69% 77 29.77 0.0
13 01:35 S 9 10.00 Fair CLR 75.2 64.4 69% 77 29.77 0.0
13 01:15 S 10 10.00 Fair CLR 75.2 64.4 69% 77 29.77 0.0
13 00:55 S 9 10.00 Fair CLR 75.2 64.4 69% 77 29.78 0.0
13 00:35 S 8 10.00 Fair CLR 75.2 64.4 69% 77 29.78 0.0
13 00:15 S 10 10.00 Fair CLR 77 64.4 65% 79 29.78 0.0
12 23:55 S 12 G 18 10.00 A Few Clouds FEW095 78.8 64.4 61% 81 29.79 0.0
12 23:35 S 13 G 18 10.00 Fair CLR 78.8 64.4 61% 81 29.79 0.0
12 23:15 S 10 10.00 Fair CLR 77 64.4 65% 79 29.79 0.0
12 22:55 S 9 10.00 Fair CLR 77 64.4 65% 79 29.78 0.0
12 22:35 S 8 10.00 Fair CLR 78.8 64.4 61% 81 29.79 0.0
12 22:15 S 12 10.00 Fair CLR 78.8 64.4 61% 81 29.78 0.0
12 21:55 S 12 10.00 Fair CLR 78.8 64.4 61% 81 29.8 0.0
12 21:35 S 10 10.00 Fair CLR 78.8 64.4 61% 81 29.78 0.0
12 21:15 S 12 10.00 Fair CLR 78.8 62.6 58% 80 29.78 0.0
12 20:55 S 10 G 16 10.00 Fair CLR 78.8 62.6 58% 80 29.78 0.0
12 20:35 S 9 10.00 Fair CLR 80.6 62.6 54% 82 29.79 0.0
12 20:15 S 9 10.00 Fair CLR 80.6 62.6 54% 82 29.8 0.0
12 19:55 S 12 10.00 Fair CLR 82.4 62.6 51% 83 29.8 0.0
12 19:35 SW 10 10.00 Fair CLR 84.2 62.6 48% 85 29.81 0.0
12 19:15 SW 14 10.00 Fair CLR 86 62.6 46% 87 29.8 0.0
12 18:55 SW 13 10.00 Fair CLR 86 62.6 46% 87 29.81 0.0
12 18:35 SW 14 G 21 10.00 Fair CLR 86 60.8 43% 86 29.81 0.0
12 18:15 SW 14 10.00 Fair CLR 87.8 62.6 43% 88 29.82 0.0
12 17:55 S 9 10.00 Fair CLR 87.8 60.8 40% 88 29.82 0.0
12 17:35 S 10 10.00 Fair CLR 87.8 60.8 40% 88 29.83 0.0
12 17:15 S 9 10.00 Fair CLR 87.8 62.6 43% 88 29.84 0.0
12 16:55 S 13 10.00 Fair CLR 86 60.8 43% 86 29.84 0.0
12 16:35 S 8 10.00 Fair CLR 86 60.8 43% 86 29.85 0.0
12 16:15 S 8 10.00 Fair CLR 84.2 60.8 45% 84 29.85 0.0
12 15:55 SW 10 G 16 10.00 Fair CLR 86 59 40% 85 29.86 0.0
12 15:35 SW 12 G 21 10.00 Fair CLR 86 59 40% 85 29.85 0.0
12 15:15 SW 16 G 24 10.00 Fair CLR 86 59 40% 85 29.86 0.0
12 14:55 S 18 G 25 10.00 Fair CLR 86 59 40% 85 29.85 0.0
12 14:35 S 18 G 26 10.00 Fair CLR 87.8 59 38% 87 29.84 0.0
12 14:15 S 16 G 23 10.00 Fair CLR 87.8 60.8 40% 88 29.84 0.0
12 13:55 S 20 G 31 10.00 Fair CLR 87.8 59 38% 87 29.86 0.0
12 13:35 SW 21 G 29 10.00 Fair and Breezy CLR 87.8 60.8 40% 88 29.86 0.0
12 13:15 SW 16 G 24 10.00 Fair CLR 87.8 60.8 40% 88 29.86 0.0
12 12:55 SW 20 G 26 10.00 Fair CLR 87.8 60.8 40% 88 29.86 0.0
12 12:35 SW 20 G 31 10.00 Fair CLR 87.8 60.8 40% 88 29.86 0.0
12 12:15 SW 21 G 28 10.00 Fair and Breezy CLR 87.8 62.6 43% 88 29.87 0.0
12 11:55 SW 14 G 23 10.00 Fair CLR 87.8 64.4 46% 89 29.88 0.0
12 11:35 SW 14 G 23 10.00 Fair CLR 86 64.4 49% 87 29.89 0.0
12 11:15 SW 14 G 21 10.00 Fair CLR 84.2 62.6 48% 85 29.89 0.0
12 10:55 SW 15 G 22 10.00 Fair CLR 84.2 64.4 51% 86 29.89 0.0
12 10:35 SW 12 G 17 10.00 Fair CLR 82.4 64.4 55% 84 29.9 0.0
12 10:15 SW 10 10.00 Fair CLR 82.4 64.4 55% 84 29.9 0.0
12 09:55 SW 10 10.00 Fair CLR 80.6 64.4 58% 82 29.89 0.0
12 09:35 SW 10 10.00 Fair CLR 78.8 66.2 65% 81 29.89 0.0
12 09:15 SW 8 10.00 Fair CLR 77 68 74% 79 29.9 0.0
12 08:55 SW 8 10.00 Fair CLR 75.2 68 78% 76 29.9 0.0
12 08:35 S 5 10.00 Fair CLR 73.4 69.8 89% 29.9 0.0
12 08:15 S 5 10.00 Fair CLR 71.6 69.8 94% 29.9 0.0
12 07:55 S 6 10.00 Fair CLR 69.8 69.8 100% 29.9 0.0
12 07:35 S 5 10.00 Fair CLR 69.8 68 94% 29.9 0.0
12 07:15 S 7 10.00 Fair CLR 68 68 100% 29.91 0.0
12 06:55 S 5 10.00 Fair CLR 64.4 64.4 100% 29.91 0.0
12 06:35 S 5 10.00 Fair CLR 62.6 62.6 100% 29.91 0.0
12 06:15 SW 5 10.00 Fair CLR 62.6 60.8 94% 29.92 0.0
12 05:55 SW 6 10.00 Fair CLR 62.6 60.8 94% 29.91 0.0
12 05:35 SW 5 10.00 Fair CLR 64.4 62.6 94% 29.91 0.0
12 05:15 SW 5 10.00 Fair CLR 64.4 62.6 94% 29.91 0.0
12 04:55 W 3 10.00 Fair CLR 66.2 62.6 88% 29.91 0.0
12 04:15 SW 7 10.00 Fair CLR 62.6 62.6 100% 29.91 0.0
12 03:55 SW 6 10.00 Fair CLR 64.4 62.6 94% 29.91 0.0
12 03:35 SW 6 10.00 Fair CLR 64.4 62.6 94% 29.9 0.0
12 03:15 SW 6 10.00 Fair CLR 64.4 62.6 94% 29.9 0.0
12 02:55 S 5 10.00 Fair CLR 64.4 62.6 94% 29.9 0.0
12 02:35 S 6 10.00 Fair CLR 62.6 62.6 100% 29.89 0.0
12 02:15 SW 5 10.00 Fair CLR 66.2 59 78% 29.88 0.0
12 01:55 SW 6 8.00 Fair CLR 66.2 57.2 73% 29.88 0.0
12 01:35 SW 6 9.00 Fair CLR 68 55.4 64% 29.88 0.0
Date Time (cdt) Wind (mph) Vis. (mi.) Weather Sky Cond. Air Dwpt Max. Min. Relative Humidity Wind Chill (°F) Heat Index (°F) altimeter (in) sea level (mb) 1 hr 3 hr 6 hr
6 hour
Temperature (ºF) Pressure Precipitation (in)